Wind_Speed
24 24 25 24 24 25 25 25 25 24 24 24 24 24 24 24 23 23 23 23 23 23 24 23 23 22 22 21 20 20 20 19 19 19 19 19 19 20
26 26 25 25 25 25 26 26 26 25 25 25 26 26 25 25 24 23 23 23 23 23 24 24 23 23 22 22 22 21 21 20 20 20 20 20 20 21
28 26 26 27 26 26 25 26 27 26 26 26 26 26 26 25 25 25 24 24 24 24 24 23 23 23 23 23 23 22 22 22 22 21 21 21 21 21
30 28 28 28 27 27 27 27 27 27 27 26 26 26 26 26 26 26 25 25 26 25 25 24 24 24 24 24 23 23 23 23 23 23 22 22 21 22
31 30 29 29 29 28 28 28 28 28 28 27 27 26 26 26 26 26 26 26 26 25 25 25 24 24 25 25 24 24 24 24 24 24 24 24 23 23
31 31 30 30 30 29 29 28 28 28 28 28 28 27 26 26 27 26 26 25 25 25 25 25 25 25 25 26 26 26 26 25 25 25 25 25 25 24
31 31 30 29 29 29 29 29 28 28 28 28 28 28 27 27 27 26 26 25 25 25 25 25 26 26 26 26 27 27 27 26 26 26 26 26 25 25
31 31 30 30 29 29 29 29 28 27 27 28 29 28 28 27 26 26 27 27 27 27 26 25 26 26 26 26 27 27 27 27 27 27 26 26 26 26
31 31 31 30 30 29 30 30 29 29 29 28 28 28 28 27 27 26 27 27 27 27 26 26 26 26 27 27 27 28 28 27 27 27 27 27 27 27
30 30 30 30 30 29 29 30 30 30 29 28 28 28 28 27 27 27 27 27 26 27 27 27 27 27 27 27 28 28 28 28 29 29 28 27 26 26
30 29 29 29 29 29 29 29 30 29 29 29 29 28 28 27 27 27 27 26 26 27 27 27 27 27 27 27 28 28 28 29 29 29 29 29 28 28
29 29 29 29 29 29 29 28 29 28 27 27 28 28 27 27 28 27 27 27 27 27 27 27 27 27 27 27 28 27 27 28 28 29 29 29 30 30
29 29 29 29 29 29 29 28 27 27 26 26 27 27 27 27 27 28 28 28 28 27 27 27 27 27 27 27 27 27 27 27 28 28 28 28 29 30
28 28 29 30 29 28 28 27 26 26 26 26 26 26 26 27 28 28 28 28 28 28 28 28 27 27 27 28 27 27 28 28 28 28 28 28 28 28
28 28 28 28 29 28 27 26 26 26 26 26 26 26 26 27 28 28 28 28 28 28 29 29 28 28 28 29 29 28 28 28 28 28 28 28 28 28
28 27 27 27 27 27 27 27 27 27 26 27 27 27 27 27 27 28 28 27 27 27 27 28 28 28 28 29 29 29 29 29 28 29 28 28 29 29
26 27 27 27 26 26 27 27 27 27 27 27 27 27 27 26 27 27 27 27 27 27 27 27 28 28 28 29 29 29 29 29 29 29 29 28 28 28
27 27 27 27 27 27 27 27 27 27 27 27 27 27 27 27 27 27 27 27 26 26 26 26 26 26 27 28 29 29 29 29 29 29 29 28 28 28
27 27 27 27 28 28 27 28 28 28 28 27 27 28 28 28 27 27 26 26 26 26 26 26 27 27 27 27 28 29 29 29 29 29 29 29 28 28
28 28 28 27 28 28 28 28 28 28 28 28 28 28 28 28 27 27 26 26 26 26 26 27 27 27 27 27 27 27 28 28 29 29 29 28 28 28
29 29 28 27 27 27 28 28 28 28 28 28 28 28 28 28 28 27 27 27 27 27 27 27 27 27 27 27 27 27 27 27 28 28 28 28 28 28
28 28 28 28 27 27 27 28 28 28 29 29 28 28 29 29 29 28 28 28 28 28 27 27 27 27 27 27 27 27 27 27 28 28 28 29 29 29
27 27 27 28 27 27 27 27 27 27 28 28 28 28 28 29 29 28 28 28 28 28 27 27 27 27 28 28 28 28 28 28 28 28 29 29 29 30
Wind_Direction
277 276 274 274 276 273 274 275 275 274 274 273 274 275 275 274 271 270 268 268 269 267 267 268 267 266 265 266 268 268 269 270 271 271 272 274 275 274
274 274 272 272 274 274 275 275 274 274 274 273 274 274 274 275 273 272 271 270 270 268 267 267 267 266 265 265 268 268 267 269 270 270 272 273 275 275
271 272 271 272 273 274 276 275 274 273 273 273 273 273 272 273 273 273 272 271 270 268 267 265 266 267 267 266 268 266 266 268 269 271 273 273 275 273
271 271 269 271 273 274 275 275 274 272 272 272 272 272 272 271 271 272 271 271 269 268 266 266 266 267 267 266 267 266 267 268 270 271 273 273 271 270
271 271 271 271 271 272 273 273 273 272 271 271 271 271 271 270 270 270 270 269 268 266 266 267 267 268 267 266 266 267 267 268 270 271 272 271 271 270
272 271 271 272 272 272 273 272 272 270 270 270 270 270 270 269 269 269 269 268 267 266 265 266 267 268 269 267 266 266 265 267 268 270 271 271 272 271
273 272 272 272 271 272 273 272 272 270 270 270 270 270 269 269 269 270 269 268 268 267 266 266 267 268 269 268 266 265 265 265 266 268 269 270 270 269
273 272 272 272 272 271 272 272 273 272 272 271 270 269 268 268 269 270 270 269 268 267 266 266 267 267 269 269 267 267 265 265 266 266 268 267 267 267
272 271 271 272 272 271 271 272 273 274 273 272 270 269 269 267 268 269 270 269 269 267 266 267 268 268 269 270 269 268 267 266 267 266 267 266 265 264
274 272 272 271 271 272 271 273 275 276 273 272 269 269 269 268 268 268 269 269 269 268 268 268 268 269 269 269 270 269 267 266 266 267 265 263 264 263
275 271 270 270 270 272 272 274 274 275 273 270 269 268 268 268 268 269 268 268 270 269 269 269 269 269 269 269 269 269 268 266 266 265 263 261 264 265
276 273 269 269 270 272 272 273 274 274 272 271 269 267 267 268 270 269 268 268 268 268 269 270 270 270 270 269 267 267 268 266 265 265 264 264 265 265
276 273 269 269 270 271 271 272 273 272 270 269 269 268 269 269 269 269 269 269 268 268 269 270 270 270 270 270 270 270 270 269 268 268 267 266 267 267
277 274 270 268 270 269 269 268 268 268 269 269 268 267 267 267 268 269 271 271 269 267 269 270 271 271 271 272 273 273 273 273 272 272 270 269 269 269
279 277 274 271 270 267 267 267 267 267 267 267 267 268 268 269 268 269 270 269 268 268 269 269 270 270 271 272 273 273 273 273 273 273 272 272 272 271
278 276 274 272 272 268 268 267 267 266 266 266 267 269 269 269 269 268 267 268 267 268 270 270 270 270 270 271 271 271 272 272 273 273 272 273 274 273
278 277 275 273 272 271 270 268 267 266 266 266 267 269 270 269 269 269 268 268 267 267 268 270 270 271 272 273 272 273 273 273 273 274 273 273 273 272
280 279 277 275 272 270 269 268 267 267 266 265 265 267 269 269 268 268 269 269 269 268 269 271 271 272 273 273 273 273 273 273 274 273 273 272 271 270
279 280 280 277 273 270 270 270 268 268 267 264 264 266 267 268 268 268 268 268 269 270 271 273 274 274 275 275 274 273 273 273 274 272 271 271 270 270
277 278 279 278 275 272 270 270 269 267 266 265 264 264 265 266 266 267 269 269 269 269 270 272 274 275 276 276 276 275 275 275 274 272 270 269 270 271
278 278 278 278 275 272 271 270 270 267 266 266 265 264 264 265 265 266 268 269 269 269 270 272 274 275 276 276 277 277 276 276 275 273 270 269 269 270
280 278 277 276 274 272 270 270 269 267 267 266 266 265 265 264 264 265 267 268 268 269 270 272 273 274 275 276 277 278 277 277 276 275 273 270 269 269
281 280 278 276 274 271 271 269 267 267 267 265 265 265 263 262 264 265 265 266 267 269 270 270 271 272 274 275 277 277 276 276 275 275 274 273 272 271
Height
5788 5787 5787 5787 5787 5787 5787 5787 5787 5787 5788 5787 5787 5787 5787 5787 5787 5787 5788 5789 5789 5789 5790 5790 5791 5791 5792 5792 5792 5792 5792 5792 5792 5792 5792 5792 5792 5792
5781 5780 5780 5780 5780 5780 5780 5779 5779 5780 5780 5780 5780 5780 5780 5780 5780 5780 5781 5781 5782 5782 5783 5784 5784 5784 5785 5785 5786 5786 5786 5786 5786 5786 5786 5786 5786 5786
5772 5772 5772 5772 5772 5772 5772 5772 5772 5772 5772 5772 5772 5773 5772 5773 5773 5773 5774 5774 5775 5775 5776 5776 5777 5778 5778 5779 5779 5779 5780 5780 5780 5780 5780 5780 5779 5779
5763 5764 5764 5764 5764 5764 5764 5764 5764 5764 5764 5765 5765 5765 5765 5765 5765 5766 5766 5767 5767 5768 5769 5769 5770 5770 5771 5771 5772 5772 5773 5773 5773 5773 5773 5773 5773 5773
5755 5755 5755 5755 5756 5756 5756 5756 5756 5756 5756 5756 5757 5757 5757 5757 5758 5758 5758 5759 5760 5760 5761 5762 5762 5763 5763 5764 5764 5765 5765 5766 5766 5766 5766 5766 5766 5766
5746 5746 5747 5747 5747 5747 5747 5747 5747 5748 5748 5748 5748 5749 5749 5749 5750 5750 5751 5751 5752 5752 5753 5754 5754 5755 5756 5756 5757 5757 5757 5758 5758 5758 5758 5758 5758 5758
5737 5737 5738 5738 5738 5739 5739 5738 5738 5739 5739 5739 5740 5740 5741 5741 5742 5742 5743 5743 5744 5744 5745 5746 5746 5747 5747 5748 5748 5748 5749 5749 5750 5750 5750 5750 5750 5750
5728 5728 5729 5729 5729 5730 5730 5730 5730 5730 5730 5730 5731 5732 5732 5733 5733 5733 5734 5735 5736 5737 5737 5738 5738 5739 5739 5739 5739 5739 5740 5740 5741 5741 5741 5741 5741 5742
5718 5719 5719 5720 5720 5720 5721 5721 5721 5721 5721 5721 5722 5723 5723 5724 5725 5725 5726 5726 5727 5727 5728 5729 5730 5730 5730 5730 5730 5731 5731 5731 5731 5732 5732 5732 5732 5733
5709 5709 5710 5710 5711 5711 5712 5712 5712 5712 5712 5713 5713 5713 5714 5715 5716 5716 5717 5717 5718 5718 5719 5720 5721 5721 5721 5721 5721 5721 5722 5722 5722 5723 5723 5722 5723 5723
5699 5700 5700 5701 5702 5702 5703 5703 5703 5703 5703 5703 5704 5704 5705 5706 5707 5707 5708 5709 5710 5710 5710 5711 5712 5712 5713 5712 5712 5712 5711 5712 5712 5713 5713 5712 5713 5714
5690 5690 5691 5691 5692 5692 5693 5693 5694 5694 5694 5694 5695 5696 5696 5697 5698 5698 5699 5700 5701 5701 5701 5702 5702 5703 5704 5704 5703 5702 5702 5702 5702 5702 5702 5702 5703 5703
5681 5681 5681 5681 5682 5682 5683 5684 5685 5685 5685 5686 5686 5687 5687 5688 5689 5689 5690 5691 5691 5692 5692 5693 5693 5693 5693 5694 5693 5693 5693 5693 5693 5692 5692 5692 5693 5693
5672 5671 5671 5672 5672 5673 5674 5675 5675 5676 5677 5677 5678 5678 5679 5680 5680 5680 5680 5681 5681 5682 5682 5683 5683 5684 5684 5684 5684 5684 5684 5683 5683 5683 5683 5683 5683 5683
5663 5663 5662 5662 5663 5664 5665 5665 5667 5667 5668 5669 5669 5670 5670 5670 5671 5671 5671 5671 5672 5672 5673 5673 5673 5674 5674 5674 5675 5675 5675 5675 5674 5674 5674 5674 5674 5673
5655 5655 5654 5654 5654 5655 5656 5657 5657 5658 5659 5660 5661 5661 5662 5662 5662 5662 5662 5663 5663 5664 5663 5664 5664 5664 5664 5664 5665 5665 5665 5665 5665 5665 5665 5664 5664 5663
5647 5647 5646 5646 5646 5647 5647 5648 5649 5650 5650 5651 5652 5653 5653 5653 5653 5653 5654 5654 5654 5655 5655 5655 5655 5655 5655 5655 5655 5655 5656 5656 5656 5655 5655 5655 5654 5654
5640 5639 5638 5638 5638 5638 5639 5639 5640 5641 5641 5642 5643 5644 5644 5644 5644 5645 5645 5645 5645 5646 5646 5646 5647 5647 5647 5646 5645 5645 5645 5645 5645 5645 5645 5645 5645 5644
5631 5630 5630 5629 5629 5630 5630 5631 5631 5632 5632 5633 5634 5635 5635 5635 5636 5636 5636 5637 5637 5637 5637 5637 5637 5637 5638 5637 5636 5635 5635 5635 5635 5635 5635 5635 5635 5635
5623 5622 5621 5621 5621 5621 5621 5621 5622 5623 5623 5624 5625 5626 5626 5626 5627 5627 5628 5628 5628 5628 5628 5628 5628 5628 5628 5628 5627 5626 5624 5624 5624 5624 5624 5624 5625 5625
5614 5613 5613 5612 5612 5612 5612 5612 5613 5614 5614 5615 5616 5616 5617 5617 5618 5618 5619 5619 5619 5619 5619 5619 5619 5618 5618 5618 5618 5617 5616 5614 5614 5614 5614 5615 5615 5615
5605 5605 5604 5603 5603 5603 5603 5603 5604 5605 5605 5606 5607 5607 5608 5608 5609 5609 5610 5610 5610 5610 5610 5610 5609 5609 5609 5609 5608 5608 5607 5606 5605 5604 5604 5605 5605 5606
5597 5596 5595 5594 5594 5594 5594 5594 5595 5596 5596 5597 5597 5598 5598 5599 5599 5600 5600 5600 5601 5601 5600 5601 5600 5600 5600 5599 5599 5598 5598 5597 5597 5596 5595 5595 5595 5595